| time (UTC) | temp F | wind direction | speed MPH | gust MPH | rain 1hr in | rain 24hr in | rain mn in | humidity % | barometer mb |
| 20260505083027 | 57 | 150 | 0.0 | 0.0 | 0.00 | 0.00 | 0.00 | 89 | 1013.7 |
| 20260505083010 | 54 | 46 | 7.0 | 14.0 | 0.01 | 0.01 | 0.01 | 52 | 1008.5 |
| 20260505081524 | 57 | 150 | 0.0 | 0.0 | 0.00 | 0.00 | 0.00 | 89 | 1013.9 |
| 20260505081505 | 55 | 49 | 7.0 | 17.0 | 0.01 | 0.01 | 0.01 | 51 | 1008.8 |
| 20260505080025 | 57 | 150 | 0.0 | 0.0 | 0.00 | 0.00 | 0.00 | 88 | 1014.1 |
| 20260505080003 | 55 | 46 | 6.0 | 13.0 | 0.01 | 0.01 | 0.01 | 52 | 1009.6 |
| 20260505074519 | 58 | 148 | 0.0 | 0.0 | 0.00 | 0.00 | 0.00 | 87 | 1014.1 |
| 20260505074502 | 55 | 19 | 6.0 | 15.0 | 0.01 | 0.01 | 0.01 | 53 | 1009.1 |
| 20260505073102 | 55 | 354 | 6.0 | 10.0 | 0.00 | 0.00 | 0.00 | 58 | 1009.6 |
| 20260505073018 | 58 | 148 | 0.0 | 0.0 | 0.00 | 0.00 | 0.00 | 85 | 1014.2 |
| 20260505071558 | 56 | 359 | 2.0 | 13.0 | 0.00 | 0.00 | 0.00 | 52 | 1009.9 |
| 20260505071516 | 59 | 148 | 0.0 | 0.0 | 0.00 | 0.00 | 0.00 | 84 | 1014.2 |
| 20260505070055 | 58 | 359 | 4.0 | 14.0 | 0.00 | 0.00 | 0.00 | 44 | 1009.4 |
| 20260505070014 | 59 | 148 | 0.0 | 0.0 | 0.00 | 0.00 | 0.00 | 85 | 1014.1 |
| 20260505064548 | 58 | 359 | 10.0 | 19.0 | 0.00 | 0.00 | 0.00 | 42 | 1008.6 |
| 20260505064513 | 59 | 148 | 0.0 | 0.0 | 0.00 | 0.00 | 0.00 | 85 | 1014.1 |
| 20260505063044 | 59 | 57 | 13.0 | 21.0 | 0.00 | 0.00 | 0.00 | 41 | 1007.4 |
| 20260505063016 | 59 | 148 | 0.0 | 0.0 | 0.00 | 0.00 | 0.00 | 85 | 1014.3 |
| 20260505061541 | 59 | 70 | 8.0 | 19.0 | 0.00 | 0.00 | 0.00 | 41 | 1007.5 |
| 20260505061512 | 59 | 148 | 0.0 | 0.0 | 0.00 | 0.00 | 0.00 | 84 | 1014.3 |
| 20260505060038 | 60 | 81 | 15.0 | 29.0 | 0.00 | 0.00 | 0.00 | 40 | 1007.2 |
| 20260505060011 | 59 | 148 | 0.0 | 0.0 | 0.00 | 0.00 | 0.00 | 84 | 1014.4 |
| 20260505054534 | 61 | 23 | 15.0 | 29.0 | 0.00 | 0.00 | 0.00 | 39 | 1007.1 |
| 20260505054511 | 59 | 148 | 0.0 | 0.0 | 0.00 | 0.00 | 0.00 | 84 | 1014.6 |
| 20260505053029 | 63 | 31 | 14.0 | 24.0 | 0.00 | 0.00 | 0.00 | 39 | 1006.9 |
| 20260505053010 | 59 | 148 | 0.0 | 0.0 | 0.00 | 0.00 | 0.00 | 84 | 1014.7 |
| 20260505051529 | 59 | 144 | 0.0 | 0.0 | 0.00 | 0.00 | 0.00 | 83 | 1014.6 |
| 20260505051526 | 65 | 33 | 11.0 | 25.0 | 0.00 | 0.00 | 0.00 | 38 | 1006.6 |
| 20260505041536 | 69 | 354 | 6.0 | 17.0 | 0.00 | 0.00 | 0.00 | 39 | 1005.0 |
| 20260505041508 | 59 | 170 | 0.0 | 0.0 | 0.00 | 0.00 | 0.00 | 83 | 1014.8 |
| 20260505040019 | 69 | 341 | 4.0 | 10.0 | 0.00 | 0.00 | 0.00 | 41 | 1004.9 |
| 20260505040010 | 59 | 165 | 0.0 | 0.0 | 0.00 | 0.00 | 0.00 | 82 | 1014.5 |
| 20260505034517 | 70 | 354 | 5.0 | 10.0 | 0.00 | 0.00 | 0.00 | 40 | 1004.8 |
| 20260505034506 | 60 | 153 | 0.0 | 0.0 | 0.00 | 0.00 | 0.00 | 80 | 1014.5 |
| 20260505033016 | 71 | 14 | 8.0 | 15.0 | 0.00 | 0.00 | 0.00 | 40 | 1004.5 |
| 20260505033006 | 60 | 171 | 0.0 | 0.0 | 0.00 | 0.00 | 0.00 | 79 | 1014.4 |
| 20260505031517 | 70 | 64 | 6.0 | 10.0 | 0.00 | 0.00 | 0.00 | 56 | 1004.1 |
| 20260505031505 | 60 | 145 | 0.0 | 0.0 | 0.00 | 0.00 | 0.00 | 78 | 1014.2 |
| 20260505030015 | 67 | 345 | 0.0 | 2.0 | 0.00 | 0.00 | 0.00 | 69 | 1003.9 |
| 20260505030005 | 60 | 137 | 0.0 | 0.0 | 0.00 | 0.00 | 0.00 | 78 | 1014.0 |
| 20260505024517 | 66 | 341 | 6.0 | 12.0 | 0.00 | 0.00 | 0.00 | 72 | 1003.5 |
| 20260505024509 | 60 | 175 | 0.0 | 0.0 | 0.00 | 0.00 | 0.00 | 77 | 1014.0 |
| 20260505023015 | 68 | 208 | 0.0 | 1.0 | 0.00 | 0.00 | 0.00 | 69 | 1002.5 |
| 20260505023004 | 61 | 118 | 0.0 | 0.0 | 0.00 | 0.00 | 0.00 | 78 | 1014.0 |
| 20260505021513 | 69 | 208 | 0.0 | 2.0 | 0.00 | 0.00 | 0.00 | 65 | 1002.3 |
| 20260505021504 | 61 | 167 | 0.0 | 0.0 | 0.00 | 0.00 | 0.00 | 77 | 1014.1 |
| 20260505020017 | 71 | 209 | 1.0 | 3.0 | 0.00 | 0.00 | 0.00 | 61 | 1002.0 |
| 20260505020007 | 62 | 160 | 0.0 | 0.0 | 0.00 | 0.00 | 0.00 | 75 | 1014.1 |
| 20260505014513 | 72 | 205 | 2.0 | 3.0 | 0.00 | 0.00 | 0.00 | 58 | 1001.9 |
| 20260505014502 | 63 | 186 | 0.0 | 0.0 | 0.00 | 0.00 | 0.00 | 74 | 1014.0 |
| 20260505013013 | 73 | 147 | 2.0 | 5.0 | 0.00 | 0.00 | 0.00 | 55 | 1001.8 |
| 20260505013003 | 64 | 160 | 0.0 | 0.0 | 0.00 | 0.00 | 0.00 | 67 | 1014.0 |
| 20260505011512 | 75 | 147 | 0.0 | 3.0 | 0.00 | 0.00 | 0.00 | 52 | 1001.6 |
| 20260505011504 | 64 | 140 | 0.0 | 0.0 | 0.00 | 0.00 | 0.00 | 64 | 1014.0 |
| 20260505010011 | 76 | 206 | 2.0 | 4.0 | 0.00 | 0.00 | 0.00 | 49 | 1001.5 |
| 20260505010001 | 65 | 163 | 0.0 | 0.0 | 0.00 | 0.00 | 0.00 | 65 | 1014.0 |
| 20260505004513 | 77 | 359 | 2.0 | 5.0 | 0.00 | 0.00 | 0.00 | 46 | 1001.4 |
| 20260505004504 | 65 | 164 | 0.0 | 0.0 | 0.00 | 0.00 | 0.00 | 64 | 1014.0 |
| 20260505003101 | 65 | 289 | 0.0 | 0.0 | 0.00 | 0.00 | 0.00 | 62 | 1014.0 |
| 20260505003009 | 78 | 182 | 1.0 | 5.0 | 0.00 | 0.00 | 0.00 | 45 | 1001.2 |
| 20260505001605 | 66 | 174 | 0.0 | 1.0 | 0.00 | 0.00 | 0.00 | 61 | 1014.2 |
| 20260505001510 | 79 | 201 | 3.0 | 9.0 | 0.00 | 0.00 | 0.00 | 44 | 1001.2 |
| 20260505000013 | 79 | 224 | 3.0 | 8.0 | 0.00 | 0.00 | 0.00 | 44 | 1001.3 |
| 20260504234559 | 67 | 179 | 0.0 | 1.0 | 0.00 | 0.00 | 0.00 | 59 | 1014.0 |
| 20260504234508 | 80 | 202 | 1.0 | 8.0 | 0.00 | 0.00 | 0.00 | 46 | 1001.2 |
| 20260504233108 | 67 | 123 | 0.0 | 1.0 | 0.00 | 0.00 | 0.00 | 59 | 1013.9 |
| 20260504233007 | 80 | 228 | 2.0 | 8.0 | 0.00 | 0.00 | 0.00 | 44 | 1001.3 |
| 20260504231603 | 67 | 153 | 0.0 | 1.0 | 0.00 | 0.00 | 0.00 | 60 | 1013.9 |
| 20260504231506 | 80 | 166 | 4.0 | 12.0 | 0.00 | 0.00 | 0.00 | 42 | 1001.3 |
| 20260504230058 | 67 | 130 | 0.0 | 1.0 | 0.00 | 0.00 | 0.00 | 61 | 1013.9 |
| 20260504230014 | 81 | 208 | 6.0 | 15.0 | 0.00 | 0.00 | 0.00 | 41 | 1001.3 |
| 20260504224555 | 67 | 165 | 0.0 | 3.0 | 0.00 | 0.00 | 0.00 | 62 | 1014.2 |
| 20260504224505 | 81 | 195 | 6.0 | 12.0 | 0.00 | 0.00 | 0.00 | 41 | 1001.2 |
| 20260504223055 | 67 | 160 | 0.0 | 1.0 | 0.00 | 0.00 | 0.00 | 63 | 1014.3 |
| 20260504223004 | 82 | 264 | 5.0 | 13.0 | 0.00 | 0.00 | 0.00 | 39 | 1001.2 |
| 20260504221553 | 67 | 130 | 0.0 | 0.0 | 0.00 | 0.00 | 0.00 | 63 | 1014.4 |
| 20260504221504 | 82 | 224 | 6.0 | 13.0 | 0.00 | 0.00 | 0.00 | 36 | 1001.2 |
| 20260504220052 | 67 | 134 | 0.0 | 1.0 | 0.00 | 0.00 | 0.00 | 60 | 1014.5 |
| 20260504220002 | 82 | 231 | 8.0 | 18.0 | 0.00 | 0.00 | 0.00 | 37 | 1001.2 |
| 20260504214555 | 66 | 156 | 0.0 | 1.0 | 0.00 | 0.00 | 0.00 | 65 | 1014.5 |
| 20260504214501 | 82 | 221 | 7.0 | 16.0 | 0.00 | 0.00 | 0.00 | 38 | 1001.4 |
| 20260504213141 | 82 | 242 | 7.0 | 14.0 | 0.00 | 0.00 | 0.00 | 38 | 1001.5 |
| 20260504213051 | 66 | 171 | 0.0 | 0.0 | 0.00 | 0.00 | 0.00 | 69 | 1014.8 |
| 20260504211606 | 82 | 253 | 8.0 | 16.0 | 0.00 | 0.00 | 0.00 | 37 | 1001.6 |
| 20260504211550 | 67 | 137 | 0.0 | 1.0 | 0.00 | 0.00 | 0.00 | 66 | 1015.0 |
| 20260504210104 | 67 | 172 | 0.0 | 1.0 | 0.00 | 0.00 | 0.00 | 64 | 1015.0 |
| 20260504210057 | 82 | 226 | 7.0 | 17.0 | 0.00 | 0.00 | 0.00 | 37 | 1001.6 |
| 20260504204557 | 82 | 206 | 6.0 | 18.0 | 0.00 | 0.00 | 0.00 | 37 | 1001.7 |
| 20260504203117 | 82 | 162 | 6.0 | 16.0 | 0.00 | 0.00 | 0.00 | 38 | 1001.9 |
| 20260504203103 | 67 | 156 | 0.0 | 0.0 | 0.00 | 0.00 | 0.00 | 63 | 1015.0 |
| 20260504201551 | 82 | 182 | 5.0 | 16.0 | 0.00 | 0.00 | 0.00 | 39 | 1002.2 |
| 20260504201548 | 67 | 160 | 0.0 | 0.0 | 0.00 | 0.00 | 0.00 | 63 | 1015.0 |
| 20260504200051 | 82 | 120 | 5.0 | 15.0 | 0.00 | 0.00 | 0.00 | 40 | 1002.4 |
| 20260504200047 | 68 | 207 | 0.0 | 2.0 | 0.00 | 0.00 | 0.00 | 63 | 1015.1 |
| 20260504194559 | 81 | 209 | 6.0 | 15.0 | 0.00 | 0.00 | 0.00 | 41 | 1002.5 |
| 20260504194545 | 67 | 146 | 0.0 | 0.0 | 0.00 | 0.00 | 0.00 | 64 | 1015.2 |
| 20260504193056 | 80 | 229 | 7.0 | 12.0 | 0.00 | 0.00 | 0.00 | 40 | 1002.6 |
| 20260504193041 | 66 | 155 | 0.0 | 1.0 | 0.00 | 0.00 | 0.00 | 64 | 1015.4 |
| 20260504191544 | 80 | 222 | 7.0 | 15.0 | 0.00 | 0.00 | 0.00 | 43 | 1002.4 |
| 20260504191542 | 66 | 215 | 0.0 | 0.0 | 0.00 | 0.00 | 0.00 | 64 | 1015.3 |
| 20260504190100 | 66 | 155 | 0.0 | 0.0 | 0.00 | 0.00 | 0.00 | 64 | 1015.4 |
| 20260504190042 | 80 | 202 | 7.0 | 12.0 | 0.00 | 0.00 | 0.00 | 43 | 1002.5 |
| 20260504184541 | 79 | 225 | 9.0 | 17.0 | 0.00 | 0.00 | 0.00 | 43 | 1002.6 |
| 20260504184539 | 66 | 227 | 0.0 | 0.0 | 0.00 | 0.00 | 0.00 | 65 | 1015.4 |
| 20260504183039 | 79 | 182 | 7.0 | 13.0 | 0.00 | 0.00 | 0.00 | 43 | 1002.7 |
| 20260504181541 | 65 | 136 | 0.0 | 0.0 | 0.00 | 0.00 | 0.00 | 63 | 1015.4 |
| 20260504181535 | 78 | 214 | 5.0 | 16.0 | 0.00 | 0.00 | 0.00 | 43 | 1002.7 |
| 20260504180039 | 66 | 160 | 0.0 | 0.0 | 0.00 | 0.00 | 0.00 | 62 | 1015.4 |
| 20260504180033 | 78 | 162 | 7.0 | 16.0 | 0.00 | 0.00 | 0.00 | 44 | 1002.8 |
| 20260504174537 | 66 | 178 | 0.0 | 0.0 | 0.00 | 0.00 | 0.00 | 60 | 1015.4 |
| 20260504174531 | 77 | 196 | 8.0 | 17.0 | 0.00 | 0.00 | 0.00 | 45 | 1002.8 |
| 20260504173036 | 77 | 196 | 8.0 | 15.0 | 0.00 | 0.00 | 0.00 | 46 | 1002.8 |
| 20260504171532 | 64 | 166 | 0.0 | 0.0 | 0.00 | 0.00 | 0.00 | 66 | 1015.2 |
| 20260504171526 | 76 | 171 | 5.0 | 13.0 | 0.00 | 0.00 | 0.00 | 47 | 1003.0 |
| 20260504140108 | 66 | 189 | 6.0 | 17.0 | 0.00 | 0.00 | 0.00 | 59 | 1003.9 |